Fairborn, OH

2:19 AM EST on February 12, 2016 (GMT -0500)
Wright-Patterson Air Force Base

Weather History for KFFO - December, 2012

Change the Weather History Date:

Friday, December 7, 2012

  Actual Average Record
Temperature  
Mean Temperature 48 °F -  
Max Temperature 53 °F 42 °F 68 °F (1998)
Min Temperature 44 °F 28 °F 12 °F (2005)
Degree Days  
Heating Degree Days 16    
Moisture  
Dew Point 48 °F    
Average Humidity 99    
Maximum Humidity 100    
Minimum Humidity 93    
Precipitation  
Precipitation 0.32 in - - ()
Sea Level Pressure  
Sea Level Pressure 29.92 in    
Wind  
Wind Speed 2 mph (ESE)    
Max Wind Speed 10 mph    
Max Gust Speed -    
Visibility 4 miles    
Events Rain    
Averages and records for this station are not official NWS values.
T = Trace of Precipitation, MM = Missing Value Source: NWS Daily Summary

Daily Weather History Graph

Daily Weather History Graph

Search for Another Location

Airport or City:

Trip Planner

Search our weather history database for the weather conditions in past years. The results will help you decide how hot, cold, wet, or windy it might be!

Date:

Astronomy

Dec. 07, 2012 Rise Set
Actual Time 7:44 AM EST 5:11 PM EST
Civil Twilight 7:14 AM EST 5:41 PM EST
Nautical Twilight 6:40 AM EST 6:15 PM EST
Astronomical Twilight 6:07 AM EST 6:48 PM EST
Moon 1:03 AM EST (12/7) 1:07 PM EST (12/7)
Length of Visible Light 10h 27m
Length of Day
9h 26m
Last Quarter, 39% of the Moon is Illuminated
Dec 7
Last Quarter
Dec 13
New
Dec 20
First Quarter
Dec 28
Full
Jan 4
Last Quarter

Hourly Weather History & Observations

Time (EST) Temp. Windchill Dew Point Humidity Pressure Visibility Wind Dir Wind Speed Gust Speed Precip Events Conditions
12:15 AM 44.6 °F - 42.8 °F 93% 30.00 in 10.0 mi Calm Calm - N/A Rain Light Rain
12:56 AM 44.6 °F - 42.8 °F 93% 30.06 in 5.0 mi SE 2.3 mph - N/A Rain Light Rain
1:55 AM 44.2 °F - 43.5 °F 97% 29.99 in 4.0 mi Calm Calm - 0.03 in Rain Light Rain
2:55 AM 44.6 °F - 44.4 °F 99% 29.99 in 5.0 mi Calm Calm - 0.03 in   Overcast
3:55 AM 45.0 °F - 44.8 °F 99% 29.98 in 5.0 mi Calm Calm - N/A   Overcast
4:45 AM 46.4 °F 44.3 °F 46.4 °F 100% 29.98 in 2.5 mi SW 4.6 mph - N/A   Overcast
4:55 AM 46.6 °F - 46.6 °F 100% 29.98 in 2.5 mi SW 3.5 mph - N/A   Overcast
5:55 AM 46.4 °F 44.3 °F 46.4 °F 100% 29.98 in 2.5 mi SSW 4.6 mph - N/A   Overcast
6:55 AM 46.2 °F 44.1 °F 46.2 °F 100% 30.00 in 6.0 mi SSW 4.6 mph - N/A   Overcast
7:55 AM 46.0 °F - 46.0 °F 100% 30.00 in 5.0 mi Calm Calm - N/A   Overcast
8:55 AM 46.4 °F - 46.4 °F 100% 30.01 in 3.0 mi Calm Calm - N/A   Overcast
9:55 AM 47.3 °F - 47.3 °F 100% 30.01 in 1.5 mi Calm Calm - 0.00 in   Light Drizzle
10:19 AM 48.2 °F - 48.2 °F 100% 30.01 in 1.5 mi Calm Calm - N/A   Light Drizzle
10:41 AM 48.2 °F - 48.2 °F 100% 29.99 in 1.5 mi NE 1.2 mph - N/A   Light Drizzle
10:55 AM 47.7 °F - 47.7 °F 100% 30.01 in 1.5 mi Calm Calm - 0.01 in Rain Light Rain
11:12 AM 48.2 °F - 48.2 °F 100% 30.00 in 1.5 mi Calm Calm - N/A   Light Drizzle
11:59 AM 48.0 °F - 48.0 °F 100% 29.96 in 1.5 mi North 4.6 mph - 0.02 in   Light Drizzle
12:55 PM 48.0 °F - 48.0 °F 100% 29.96 in 1.5 mi NE 3.5 mph - 0.02 in Rain Light Rain
1:55 PM 48.6 °F - 48.6 °F 100% 29.93 in 3.0 mi East 3.5 mph - 0.05 in Rain Light Rain
2:00 PM 48.2 °F - 48.2 °F 100% 29.91 in 3.0 mi East 2.3 mph - N/A Rain Light Rain
2:40 PM 48.2 °F - 48.2 °F 100% 29.88 in 4.0 mi ENE 4.6 mph - N/A   Light Drizzle
2:55 PM 48.6 °F - 47.7 °F 97% 29.91 in 5.0 mi ENE 3.5 mph - 0.02 in   Light Drizzle
3:10 PM 48.2 °F - 48.2 °F 100% 29.90 in 5.0 mi Calm Calm - N/A   Overcast
3:18 PM 48.2 °F - 46.4 °F 93% 29.91 in 5.0 mi North 3.5 mph - N/A   Overcast
3:29 PM 48.2 °F - 46.4 °F 93% 29.90 in 5.0 mi NNE 3.5 mph - N/A   Light Drizzle
3:47 PM 48.2 °F - 46.4 °F 93% 29.91 in 4.0 mi Calm Calm - N/A Rain Light Rain
3:55 PM 48.4 °F - 47.3 °F 96% 29.91 in 4.0 mi ENE 3.5 mph - 0.02 in Rain Light Rain
4:27 PM 48.2 °F - 48.2 °F 100% 29.90 in 4.0 mi North 3.5 mph - N/A Rain Light Rain
4:33 PM 48.2 °F - 48.2 °F 100% 29.91 in 4.0 mi Calm Calm - N/A Rain Light Rain
4:41 PM 48.2 °F - 48.2 °F 100% 29.91 in 2.0 mi Calm Calm - N/A Rain Rain
4:50 PM 48.2 °F - 48.2 °F 100% 29.92 in 2.0 mi Calm Calm - N/A Rain Rain
5:03 PM 48.2 °F - 48.2 °F 100% 29.91 in 2.0 mi Calm Calm - N/A Rain Light Rain
5:17 PM 48.2 °F - 48.2 °F 100% 29.88 in 2.0 mi East 6.9 mph - N/A Rain Light Rain
5:27 PM 48.2 °F - 48.2 °F 100% 29.88 in 2.0 mi East 5.8 mph - N/A Rain Light Rain
5:41 PM 48.2 °F - 48.2 °F 100% 29.89 in 4.0 mi Calm Calm - N/A   Overcast
5:49 PM 48.2 °F - 48.2 °F 100% 29.89 in 4.0 mi Calm Calm - N/A   Overcast
5:51 PM 48.2 °F - 48.2 °F 100% 29.89 in 4.0 mi Calm Calm - N/A   Overcast
5:55 PM 48.4 °F - 48.4 °F 100% 29.89 in 4.0 mi Calm Calm - 0.06 in   Overcast
6:04 PM 48.2 °F - 48.2 °F 100% 29.89 in 4.0 mi Calm Calm - N/A   Overcast
6:11 PM 48.2 °F - 48.2 °F 100% 29.89 in 4.0 mi Calm Calm - N/A   Overcast
6:27 PM 48.2 °F - 48.2 °F 100% 29.89 in 4.0 mi Calm Calm - N/A   Light Drizzle
6:55 PM 49.1 °F - 49.1 °F 100% 29.90 in 4.0 mi Calm Calm - 0.02 in Rain Light Rain
6:59 PM 50.0 °F - 50.0 °F 100% 29.89 in 3.0 mi Calm Calm - N/A Rain Light Rain
7:21 PM 48.2 °F - 48.2 °F 100% 29.87 in 8.0 mi East 6.9 mph - N/A   Light Drizzle
7:26 PM 48.2 °F - 48.2 °F 100% 29.87 in 4.0 mi East 6.9 mph - N/A   Light Drizzle
7:31 PM 48.2 °F - 48.2 °F 100% 29.88 in 4.0 mi East 5.8 mph - N/A   Mostly Cloudy
7:41 PM 48.2 °F - 48.2 °F 100% 29.88 in 4.0 mi ESE 4.6 mph - N/A   Mostly Cloudy
7:55 PM 49.1 °F - 49.1 °F 100% 29.88 in 4.0 mi East 5.8 mph - 0.02 in   Overcast
8:55 PM 49.8 °F - 49.8 °F 100% 29.87 in 4.0 mi ESE 5.8 mph - N/A   Overcast
9:19 PM 50.0 °F - 50.0 °F 100% 29.86 in 8.0 mi ESE 6.9 mph - N/A   Overcast
9:24 PM 50.0 °F - 50.0 °F 100% 29.85 in 6.0 mi ESE 5.8 mph - N/A Rain Light Rain
9:37 PM 50.0 °F - 50.0 °F 100% 29.86 in 7.0 mi SE 5.8 mph - N/A   Overcast
9:55 PM 50.4 °F - 50.4 °F 100% 29.86 in 2.5 mi South 5.8 mph - 0.01 in Rain Light Rain
10:22 PM 51.8 °F - 51.8 °F 100% 29.84 in 4.0 mi SSE 6.9 mph - N/A   Overcast
10:55 PM 51.8 °F - 51.8 °F 100% 29.84 in 7.0 mi South 8.1 mph - 0.01 in   Overcast
11:49 PM 53.6 °F - 53.6 °F 100% 29.84 in 10.0 mi SW 9.2 mph - N/A   Overcast
11:55 PM 53.1 °F - 53.1 °F 100% 29.83 in 10.0 mi SW 10.4 mph - N/A   Overcast